Location: Camerons Lookout
(40.9833°S, 175.9333°E)
Time: 22:56:58
(UTC+00:00)

Cosmos 990 Rocket - Pass Details

Date: 14 January 2026
Orbit: 742 x 764 km, 74.0° (Epoch: 15 February)

Event Time Altitude Azimuth Distance (km) Brightness Sun altitude
Exits shadow 11:26:53 82° 95° (E) 772 3.8 -26.3°
Drops below altitude 10° 11:32:00 10° 159° (SSE) 2,296 7.1 -26.5°
Sets 11:34:22 0° 159° (SSE) 3,225 8.1 -26.6°
